When you browse on this site, cookies collect data to enhance your experience and personalize the content and advertising you see.
Visit our Privacy Policy to learn more. By continuing to use the site, you agree to this use of cookies and data.
  • In Hungary
  • List of Countries
  • For 7 days
  • Water Temperature
  • Satellite Maps
  • Weather Map
  • News
  • Weather Widgets
  • user-avatar
    Login

    Hourly Weather Algiers

    Today, 21 November, Wednesday

    Time Temperature Precipitation Wind Pressure Humidity
    00:00 +14°C° 0 mm 11 mps 746 mmHg 69%
    01:00 +13°C° 0.1 mm 10 mps 746 mmHg 71%
    02:00 +13°C° 0.1 mm 9 mps 746 mmHg 74%
    03:00 +13°C° 0.1 mm 8 mps 746 mmHg 77%
    04:00 +12°C° 0.2 mm 7 mps 747 mmHg 76%
    05:00 +12°C° 0.2 mm 7 mps 747 mmHg 76%
    06:00 +12°C° 0.2 mm 7 mps 748 mmHg 75%
    07:00 +15°C° 0 mm 6 mps 748 mmHg 69%
    08:00 +16°C° 0 mm 6 mps 748 mmHg 63%
    09:00 +17°C° 0 mm 6 mps 749 mmHg 56%
    10:00 +19°C° 0 mm 5 mps 749 mmHg 51%
    11:00 +21°C° 0 mm 5 mps 749 mmHg 46%
    12:00 +22°C° 0 mm 4 mps 749 mmHg 42%
    13:00 +22°C° 0 mm 3 mps 749 mmHg 40%
    14:00 +23°C° 0 mm 2 mps 749 mmHg 38%
    15:00 +24°C° 0 mm 1 mps 749 mmHg 36%
    16:00 +21°C° 0 mm 2 mps 749 mmHg 40%
    17:00 +20°C° 0 mm 2 mps 749 mmHg 44%
    18:00 +18°C° 0 mm 2 mps 749 mmHg 49%
    19:00 +18°C° 0 mm 3 mps 750 mmHg 48%
    20:00 +18°C° 0 mm 3 mps 750 mmHg 48%
    21:00 +18°C° 0 mm 3 mps 750 mmHg 47%
    22:00 +17°C° 0 mm 3 mps 750 mmHg 49%
    23:00 +17°C° 0 mm 3 mps 750 mmHg 50%

    Tomorrow, 22 November, Thursday

    Time Temperature Precipitation Wind Pressure Humidity
    00:00 +17°C° 0 mm 3 mps 750 mmHg 52%
    01:00 +16°C° 0 mm 3 mps 750 mmHg 52%
    02:00 +16°C° 0 mm 3 mps 750 mmHg 52%
    03:00 +16°C° 0 mm 3 mps 750 mmHg 53%
    04:00 +16°C° 0 mm 3 mps 750 mmHg 52%
    05:00 +16°C° 0 mm 3 mps 750 mmHg 51%
    06:00 +16°C° 0 mm 3 mps 750 mmHg 50%
    07:00 +17°C° 0 mm 3 mps 750 mmHg 49%
    08:00 +18°C° 0 mm 2 mps 750 mmHg 47%
    09:00 +19°C° 0 mm 2 mps 751 mmHg 46%
    10:00 +20°C° 0 mm 2 mps 750 mmHg 41%
    11:00 +23°C° 0 mm 2 mps 750 mmHg 36%
    12:00 +24°C° 0 mm 2 mps 750 mmHg 31%
    13:00 +24°C° 0 mm 2 mps 749 mmHg 31%
    14:00 +24°C° 0 mm 3 mps 749 mmHg 30%
    15:00 +24°C° 0 mm 3 mps 749 mmHg 30%
    16:00 +22°C° 0 mm 4 mps 749 mmHg 32%
    17:00 +20°C° 0 mm 4 mps 749 mmHg 34%
    18:00 +19°C° 0 mm 4 mps 749 mmHg 35%
    19:00 +18°C° 0 mm 4 mps 749 mmHg 37%
    20:00 +17°C° 0 mm 5 mps 749 mmHg 38%
    21:00 +16°C° 0 mm 5 mps 749 mmHg 40%
    22:00 +16°C° 0 mm 5 mps 749 mmHg 41%
    23:00 +16°C° 0 mm 5 mps 749 mmHg 43%

    Day after tomorrow, 23 November, Friday

    Time Temperature Precipitation Wind Pressure Humidity
    00:00 +15°C° 0 mm 6 mps 749 mmHg 44%
    01:00 +15°C° 0 mm 6 mps 749 mmHg 45%
    02:00 +15°C° 0 mm 6 mps 748 mmHg 46%
    03:00 +14°C° 0 mm 6 mps 748 mmHg 46%
    04:00 +14°C° 0 mm 6 mps 748 mmHg 47%
    05:00 +14°C° 0 mm 6 mps 748 mmHg 47%
    06:00 +14°C° 0 mm 6 mps 748 mmHg 47%
    07:00 +15°C° 0 mm 6 mps 749 mmHg 45%
    08:00 +16°C° 0 mm 6 mps 749 mmHg 42%
    09:00 +19°C° 0 mm 6 mps 749 mmHg 40%
    10:00 +20°C° 0 mm 5 mps 749 mmHg 37%
    11:00 +21°C° 0 mm 5 mps 749 mmHg 34%
    12:00 +23°C° 0 mm 5 mps 749 mmHg 31%
    13:00 +22°C° 0 mm 5 mps 749 mmHg 35%
    14:00 +22°C° 0 mm 5 mps 749 mmHg 40%
    15:00 +22°C° 0 mm 5 mps 749 mmHg 45%
    16:00 +20°C° 0 mm 4 mps 749 mmHg 56%
    17:00 +19°C° 0 mm 4 mps 750 mmHg 67%
    18:00 +17°C° 0 mm 3 mps 750 mmHg 79%
    19:00 +17°C° 0 mm 3 mps 750 mmHg 81%
    20:00 +17°C° 0 mm 3 mps 751 mmHg 84%
    21:00 +16°C° 0 mm 2 mps 751 mmHg 87%
    22:00 +16°C° 0.2 mm 2 mps 751 mmHg 88%
    23:00 +16°C° 0.2 mm 2 mps 751 mmHg 89%

    24 November, Saturday

    Time Temperature Precipitation Wind Pressure Humidity
    00:00 +16°C° 0.2 mm 2 mps 751 mmHg 90%
    01:00 +16°C° 0.5 mm 2 mps 751 mmHg 89%
    02:00 +16°C° 0.5 mm 2 mps 751 mmHg 88%
    03:00 +16°C° 0.5 mm 2 mps 751 mmHg 87%
    04:00 +16°C° 0.5 mm 2 mps 751 mmHg 87%
    05:00 +16°C° 0.5 mm 1 mps 751 mmHg 86%
    06:00 +16°C° 0.5 mm 1 mps 751 mmHg 85%
    07:00 +16°C° 0 mm 1 mps 751 mmHg 81%
    08:00 +18°C° 0 mm 1 mps 751 mmHg 76%
    09:00 +18°C° 0 mm 1 mps 752 mmHg 72%
    10:00 +19°C° 0 mm 1 mps 751 mmHg 68%
    11:00 +20°C° 0 mm 1 mps 751 mmHg 64%
    12:00 +21°C° 0 mm 1 mps 750 mmHg 60%
    13:00 +21°C° 0 mm 1 mps 750 mmHg 61%
    14:00 +21°C° 0 mm 1 mps 749 mmHg 61%
    15:00 +19°C° 0 mm 2 mps 749 mmHg 62%
    16:00 +19°C° 0.1 mm 2 mps 749 mmHg 68%
    17:00 +19°C° 0.1 mm 1 mps 749 mmHg 74%
    18:00 +18°C° 0.1 mm 1 mps 749 mmHg 81%
    19:00 +18°C° 0.1 mm 1 mps 749 mmHg 81%
    20:00 +18°C° 0.1 mm 1 mps 749 mmHg 82%
    21:00 +18°C° 0.1 mm 1 mps 750 mmHg 83%
    22:00 +16°C° 0.2 mm 1 mps 749 mmHg 84%
    23:00 +16°C° 0.2 mm 1 mps 749 mmHg 84%

    25 November, Sunday

    Time Temperature Precipitation Wind Pressure Humidity
    00:00 +16°C° 0.2 mm 2 mps 749 mmHg 85%
    01:00 +16°C° 0.2 mm 2 mps 749 mmHg 86%
    02:00 +14°C° 0.2 mm 3 mps 749 mmHg 87%
    03:00 +14°C° 0.2 mm 3 mps 748 mmHg 88%
    04:00 +14°C° 0.1 mm 4 mps 748 mmHg 88%
    05:00 +14°C° 0.1 mm 4 mps 748 mmHg 87%
    06:00 +13°C° 0.1 mm 4 mps 748 mmHg 87%
    07:00 +14°C° 0 mm 4 mps 749 mmHg 79%
    08:00 +15°C° 0 mm 5 mps 749 mmHg 72%
    09:00 +16°C° 0 mm 5 mps 750 mmHg 64%
    10:00 +17°C° 0 mm 5 mps 749 mmHg 58%
    11:00 +19°C° 0 mm 5 mps 749 mmHg 53%
    12:00 +20°C° 0 mm 6 mps 749 mmHg 47%
    13:00 +20°C° 0 mm 5 mps 748 mmHg 48%
    14:00 +20°C° 0 mm 5 mps 748 mmHg 49%
    15:00 +20°C° 0 mm 5 mps 748 mmHg 50%
    16:00 +19°C° 0 mm 5 mps 748 mmHg 55%
    17:00 +19°C° 0 mm 5 mps 748 mmHg 60%
    18:00 +17°C° 0 mm 5 mps 749 mmHg 64%
    19:00 +16°C° 0 mm 6 mps 749 mmHg 67%
    20:00 +16°C° 0 mm 6 mps 749 mmHg 70%
    21:00 +15°C° 0 mm 6 mps 749 mmHg 72%
    22:00 +15°C° 0 mm 6 mps 749 mmHg 74%
    23:00 +15°C° 0 mm 6 mps 749 mmHg 77%

    26 November, Monday

    Time Temperature Precipitation Wind Pressure Humidity
    00:00 +14°C° 0 mm 6 mps 749 mmHg 79%
    01:00 +14°C° 0 mm 6 mps 749 mmHg 80%
    02:00 +14°C° 0 mm 6 mps 748 mmHg 81%
    03:00 +14°C° 0 mm 6 mps 748 mmHg 82%
    04:00 +14°C° 0 mm 6 mps 748 mmHg 82%
    05:00 +14°C° 0 mm 6 mps 748 mmHg 83%
    06:00 +14°C° 0 mm 6 mps 748 mmHg 83%
    07:00 +15°C° 0 mm 6 mps 749 mmHg 79%
    08:00 +16°C° 0 mm 6 mps 749 mmHg 74%
    09:00 +17°C° 0 mm 6 mps 750 mmHg 70%
    10:00 +19°C° 0 mm 6 mps 750 mmHg 65%
    11:00 +20°C° 0 mm 6 mps 749 mmHg 61%
    12:00 +21°C° 0 mm 5 mps 749 mmHg 57%
    13:00 +21°C° 0 mm 5 mps 749 mmHg 58%
    14:00 +21°C° 0 mm 6 mps 749 mmHg 59%
    15:00 +21°C° 0 mm 6 mps 749 mmHg 60%
    16:00 +20°C° 0 mm 5 mps 749 mmHg 64%
    17:00 +19°C° 0 mm 5 mps 749 mmHg 69%
    18:00 +18°C° 0 mm 4 mps 750 mmHg 74%
    19:00 +18°C° 0.2 mm 4 mps 750 mmHg 75%
    20:00 +18°C° 0.2 mm 4 mps 751 mmHg 77%
    21:00 +17°C° 0.2 mm 3 mps 751 mmHg 78%
    22:00 +17°C° 0.2 mm 3 mps 751 mmHg 80%
    23:00 +17°C° 0.2 mm 3 mps 752 mmHg 82%
    Show more